CBERS-4

Satellite information

Favourite Embed

Satellite Type and Status

PAYLOADIN ORBIT

Key statistics

Satellite CBERS-4 at a glance.

Uptime

3866

Days in orbit

Revolutions

≈ 14.4

Per day

Orbit

SSO

Sun Synchronous Orbit

Inclination

98.4

Latest

Satellite identification and parameters

Extended collection of information and parameters for CBERS-4.

Object identification

Identified? True

Debris? False

Object name: CBERS-4

International designator: 2014-079A

Object number (NORAD): 40336

Object ID (CCSDS): 40336

Country: PEOPLES REPUBLIC OF CHINA (PRC)

Current information (Y/N): Y

RCS size: LARGE

Orbital parameters

Period: 100.312 minutes

Inclination: 98.3523 deg

SMA: 7151.486 km

Apoapsis: 773.715 km

Periapsis: 772.988 km

RAAN: 252.1192 deg

Eccentricy: 0.0000508

Argument of periapsis: 103.312 deg

Mean anomaly: 256.8122 deg

Mean motion: 14.35516794 rev/day

Mean motion (dot): 0.00000065 rev/day2

B* drag term: 0.000037171 1/REarth

Two-line elements (TLE)

Creation date: July 8, 2025, 2:27 a.m.

Reference frame: TEME

Reference center: EARTH

Epoch: July 7, 2025, 10:06 p.m. UTC

TLE line 0: 0 CBERS-4

TLE line 1: 1 40336U 14079A 25188.92105182 .00000065 00000-0 37171-4 0 9993

TLE line 2: 2 40336 98.3523 252.1192 0000508 103.3120 256.8122 14.35516794554569

Live tracking on map

Real-time ground track for satellite CBERS-4.

In-orbit conjunctions

There are no conjunctions computed for CBERS-4, at the moment. Check back to stay up to date, as we update our databases every day.

Go to all conjunctions

Associated space launch

CBERS-4 was lifted into orbit during the mission ‘Long March 4B | CBERS-4’, on board a Long March 4B space rocket.

The launch took place on Dec. 7, 2014, 3:26 a.m. from Launch Complex 9.

For more information about the launch, click the button.

Launch to space Long March 4B | CBERS-4
Long March 4B | CBERS-4

Agency: N/A

Status: Launch Successful

Launch date: Dec. 7, 2014, 3:26 a.m. UTC

Rocket: Long March 4B

Launch pad: Launch Complex 9

Location: Taiyuan Satellite Launch Center, People's Republic of China

...

Latest news about this satellite

There are no fresh news available about this satellite. Check back as we update our databases every day.


Newsletter sign-up

Weekly statistics, charts and insights to help you stay on top of the space industry.